PAL1864 RPVP-RPLC

Flight info

Callsign PAL1864
Flight time N/A
Altitude 35000
Route NOMYO1E NOMYO M646 MIA W16 OLIVA OLIVA5R
Aircraft A321/M-SDE3FGHIRWY/LB1

Departure

Time N/A
Airport Puerto Princesa International Airport / PAF Antonio Bautista Air Base (RPVP)

Arrival

Time 2026-05-05 10:43
Airport Clark International Airport / Clark Air Base (RPLC)
Time Latitude Longitude Altitude Speed Heading
2026-05-05 10:08 11.90918 119.77338 33356 ft 453 kts 24°
2026-05-05 10:08 11.93817 119.78714 33589 ft 454 kts 24°
2026-05-05 10:08 11.96659 119.80063 33801 ft 455 kts 24°
2026-05-05 10:08 11.99581 119.81451 34027 ft 456 kts 24°
2026-05-05 10:09 12.02511 119.82843 34260 ft 456 kts 24°
2026-05-05 10:09 12.05419 119.84225 34487 ft 457 kts 24°
2026-05-05 10:09 12.08303 119.85596 34723 ft 457 kts 24°
2026-05-05 10:09 12.11218 119.86983 34821 ft 458 kts 24°
2026-05-05 10:10 12.17039 119.89751 34833 ft 458 kts 24°
2026-05-05 10:10 12.22859 119.92522 34836 ft 459 kts 24°
2026-05-05 10:11 12.28693 119.95300 34839 ft 459 kts 24°
2026-05-05 10:11 12.34520 119.98077 34839 ft 459 kts 24°
2026-05-05 10:12 12.40213 120.00789 34836 ft 458 kts 24°
2026-05-05 10:12 12.46025 120.03561 34834 ft 459 kts 24°
2026-05-05 10:13 12.51842 120.06335 34834 ft 458 kts 24°
2026-05-05 10:13 12.57653 120.09109 34834 ft 458 kts 24°
2026-05-05 10:14 12.63452 120.11878 34833 ft 458 kts 24°
2026-05-05 10:14 12.69244 120.14646 34836 ft 458 kts 24°
2026-05-05 10:15 12.75045 120.17420 34839 ft 458 kts 24°
2026-05-05 10:15 12.80857 120.20200 34838 ft 458 kts 24°
2026-05-05 10:16 12.86672 120.22984 34840 ft 458 kts 24°
2026-05-05 10:16 12.92478 120.25764 34838 ft 458 kts 24°
2026-05-05 10:17 12.98240 120.28523 34842 ft 458 kts 24°
2026-05-05 10:17 13.04051 120.31308 34848 ft 458 kts 24°
2026-05-05 10:18 13.09823 120.34077 34840 ft 458 kts 24°
2026-05-05 10:18 13.15619 120.36859 34832 ft 458 kts 24°
2026-05-05 10:19 13.21448 120.39658 34830 ft 458 kts 24°
2026-05-05 10:19 13.27277 120.42458 34827 ft 458 kts 24°
2026-05-05 10:20 13.33105 120.45258 34841 ft 458 kts 24°
2026-05-05 10:20 13.38927 120.48056 34855 ft 459 kts 24°
2026-05-05 10:21 13.44734 120.50849 34875 ft 458 kts 24°
2026-05-05 10:21 13.47645 120.52251 34539 ft 460 kts 24°
2026-05-05 10:21 13.50512 120.53631 33953 ft 458 kts 24°
2026-05-05 10:22 13.53405 120.55025 33288 ft 456 kts 24°
2026-05-05 10:22 13.56317 120.56426 32563 ft 456 kts 24°
2026-05-05 10:22 13.59185 120.57808 31880 ft 457 kts 24°
2026-05-05 10:22 13.62071 120.59197 31151 ft 459 kts 25°
2026-05-05 10:23 13.64962 120.60590 30438 ft 460 kts 25°
2026-05-05 10:23 13.67842 120.61977 29971 ft 455 kts 25°
2026-05-05 10:23 13.70706 120.63360 29492 ft 450 kts 25°
2026-05-05 10:23 13.73545 120.64730 29022 ft 445 kts 25°
2026-05-05 10:24 13.76366 120.66092 28548 ft 441 kts 25°
2026-05-05 10:24 13.79156 120.67439 28079 ft 437 kts 25°
2026-05-05 10:24 13.81912 120.68770 27609 ft 433 kts 25°
2026-05-05 10:24 13.84604 120.70071 27157 ft 430 kts 25°
2026-05-05 10:25 13.87331 120.71388 26680 ft 426 kts 25°
2026-05-05 10:25 13.90001 120.72678 26211 ft 423 kts 26°
2026-05-05 10:25 13.92662 120.73962 25738 ft 420 kts 26°
2026-05-05 10:25 13.95296 120.75235 25279 ft 416 kts 26°
2026-05-05 10:26 13.97910 120.76499 24826 ft 413 kts 26°
2026-05-05 10:26 14.00528 120.77766 24370 ft 409 kts 26°
2026-05-05 10:26 14.03104 120.79012 23921 ft 406 kts 26°
2026-05-05 10:26 14.05671 120.80256 23467 ft 403 kts 26°
2026-05-05 10:27 14.08202 120.81480 23011 ft 400 kts 26°
2026-05-05 10:27 14.10718 120.82700 22555 ft 398 kts 26°
2026-05-05 10:27 14.13213 120.83908 22109 ft 395 kts 26°
2026-05-05 10:27 14.15728 120.85127 21654 ft 392 kts 26°
2026-05-05 10:28 14.18198 120.86323 21203 ft 390 kts 26°
2026-05-05 10:28 14.20675 120.87524 20745 ft 388 kts 26°
2026-05-05 10:28 14.23116 120.88706 20292 ft 387 kts 26°
2026-05-05 10:28 14.25586 120.89903 19823 ft 385 kts 26°
2026-05-05 10:29 14.28005 120.91077 19371 ft 384 kts 26°
2026-05-05 10:29 14.30456 120.92266 18907 ft 383 kts 26°
2026-05-05 10:29 14.32905 120.93455 18429 ft 381 kts 26°
2026-05-05 10:29 14.35324 120.94630 17964 ft 380 kts 26°
2026-05-05 10:30 14.37694 120.95780 17498 ft 378 kts 26°
2026-05-05 10:30 14.39300 120.96559 17184 ft 377 kts 26°
2026-05-05 10:31 14.47098 121.00349 15666 ft 372 kts 26°
2026-05-05 10:31 14.49514 121.01251 15164 ft 372 kts 10°
2026-05-05 10:31 14.51919 121.01166 14724 ft 373 kts 347°
2026-05-05 10:31 14.54286 121.00021 14262 ft 373 kts 327°
2026-05-05 10:32 14.56444 120.98483 13801 ft 372 kts 326°
2026-05-05 10:32 14.58601 120.96960 13329 ft 371 kts 327°
2026-05-05 10:32 14.60722 120.95489 12885 ft 370 kts 327°
2026-05-05 10:32 14.62902 120.93994 12398 ft 369 kts 327°
2026-05-05 10:33 14.65079 120.92511 11917 ft 368 kts 328°
2026-05-05 10:33 14.67219 120.91058 11451 ft 366 kts 328°
2026-05-05 10:33 14.69403 120.89577 10996 ft 365 kts 328°
2026-05-05 10:33 14.71541 120.88127 10512 ft 364 kts 328°
2026-05-05 10:34 14.73634 120.86709 10250 ft 356 kts 328°
2026-05-05 10:34 14.75724 120.85291 10092 ft 345 kts 328°
2026-05-05 10:34 14.76411 120.84825 10044 ft 341 kts 328°
2026-05-05 10:35 14.81827 120.81147 9304 ft 324 kts 329°
2026-05-05 10:35 14.83740 120.79849 9011 ft 320 kts 329°
2026-05-05 10:35 14.85586 120.78594 8730 ft 315 kts 329°
2026-05-05 10:35 14.87434 120.77339 8453 ft 310 kts 329°
2026-05-05 10:36 14.89231 120.76117 8184 ft 306 kts 328°
2026-05-05 10:36 14.91011 120.74907 7919 ft 302 kts 328°
2026-05-05 10:36 14.92788 120.73698 7654 ft 297 kts 328°
2026-05-05 10:36 14.94412 120.72430 7342 ft 293 kts 313°
2026-05-05 10:37 14.95349 120.70584 6839 ft 294 kts 282°
2026-05-05 10:37 14.95613 120.68481 6539 ft 291 kts 277°
2026-05-05 10:37 14.95865 120.66396 6216 ft 290 kts 278°
2026-05-05 10:37 14.96149 120.64326 5911 ft 288 kts 279°
2026-05-05 10:38 14.96443 120.62311 5706 ft 282 kts 279°
2026-05-05 10:38 14.96765 120.60326 5381 ft 275 kts 285°
2026-05-05 10:38 14.97512 120.58717 4992 ft 266 kts 310°
2026-05-05 10:38 14.98743 120.57286 4563 ft 260 kts 314°
2026-05-05 10:39 14.99956 120.55944 4176 ft 254 kts 314°
2026-05-05 10:39 15.01150 120.54605 3834 ft 246 kts 314°
2026-05-05 10:39 15.02288 120.53307 3531 ft 238 kts 314°
2026-05-05 10:39 15.03386 120.52052 3243 ft 230 kts 317°
2026-05-05 10:40 15.04745 120.51230 2999 ft 222 kts 352°
2026-05-05 10:40 15.06214 120.51304 3026 ft 203 kts 15°
2026-05-05 10:40 15.07529 120.51776 2759 ft 198 kts 24°
2026-05-05 10:40 15.08790 120.52331 2475 ft 191 kts 24°
2026-05-05 10:41 15.09981 120.52830 2232 ft 176 kts 22°
2026-05-05 10:41 15.11114 120.53280 1953 ft 167 kts 23°
2026-05-05 10:41 15.12167 120.53693 1707 ft 157 kts 23°
2026-05-05 10:41 15.13112 120.54068 1479 ft 147 kts 22°
2026-05-05 10:42 15.14979 120.54806 1075 ft 144 kts 24°
2026-05-05 10:42 15.15921 120.55186 858 ft 144 kts 22°
2026-05-05 10:42 15.16853 120.55559 651 ft 143 kts 20°
2026-05-05 10:43 15.17773 120.55920 485 ft 141 kts 21°
2026-05-05 10:43 15.18607 120.56247 471 ft 107 kts 19°
2026-05-05 10:43 15.19148 120.56461 471 ft 58 kts 21°
2026-05-05 10:43 15.19403 120.56564 471 ft 31 kts 22°
2026-05-05 10:44 15.19542 120.56616 471 ft 13 kts 15°
2026-05-05 10:44 15.19622 120.56595 472 ft 12 kts 311°
2026-05-05 10:44 15.19655 120.56519 472 ft 4 kts 289°
2026-05-05 10:44 15.19667 120.56483 472 ft 5 kts 290°